Flag for U.S.A. Weather past 2 weeks in Hudson, Wisconsin, U.S.A.

Now
60 °F

Overcast.


Feels Like: 60 °F
Forecast: 46 / 65 °F
Wind: 5 mph from Southeast

Location: St. Paul Downtown Holman Field

Current Time: Oct 24, 2014 at 1:58:31 PM

Latest Report: Oct 24, 2014 at 12:53 PM


Visibility: 10 mi

Pressure: 29.86 "Hg

Humidity: 78%

Dew point: 53 °F

Location of HudsonLocation

Historic Weather in Hudson — Graph

°F

Hudson temperature yesterday

Maximum temperature yesterday: 67 °F (at 3:53 PM)
Minimum temperature yesterday: 48 °F (at 11:53 PM)
Average temperature yesterday: 55 °F

Past Weeks' High & Low Weather Summary

 TemperatureHumidityPressure
High71 °F (Oct 16, 2:53 PM)100% (Oct 11, 5:53 AM)30.30 "Hg (Oct 11, 5:53 AM)
Low33 °F (Oct 10, 6:53 AM)31% (Oct 15, 3:53 PM)29.56 "Hg (Oct 16, 4:53 PM)
Average50 °F72%30.00 "Hg
* Reported Oct 9 11:53 AM — Oct 24 11:53 AM, Hudson, Weather by CustomWeather, © 2014

Note: Actual official high and low records may vary slightly from our data, if they occured in-between our weather recording intervals... More about our weather records

Advertising

Hudson weather history for previous 24 hours

 ConditionsComfort  
Time TempWeatherWind HumidityBarometerVisibility
11:53 AM
Oct 24
60 °FSunny.9 mph75%29.87 "Hg10 mi
10:53 AM56 °FSunny.12 mph81%29.88 "Hg10 mi
9:53 AM54 °FSunny.12 mph83%29.89 "Hg10 mi
8:53 AM50 °FBroken clouds.9 mph89%29.91 "Hg10 mi
7:53 AM48 °FPassing clouds.6 mph93%29.91 "Hg10 mi
6:53 AM47 °FClear.6 mph97%29.92 "Hg10 mi
5:53 AM46 °FClear.3 mph100%29.93 "Hg7 mi
4:53 AM46 °FFog.6 mph100%29.94 "Hg5 mi
3:53 AM47 °FFog.8 mph100%29.95 "Hg1 mi
2:53 AM47 °FFog.8 mph100%29.96 "Hg1 mi
1:53 AM47 °FFog.8 mph100%29.97 "Hg5 mi
12:53 AM46 °FFog.5 mph100%29.98 "Hg5 mi
11:53 PM
Oct 23
48 °FFog.3 mph96%29.98 "Hg5 mi
10:53 PM50 °FCool.7 mph93%29.97 "Hg7 mi
9:53 PM51 °FClear.8 mph92%29.99 "Hg9 mi
8:53 PM52 °FClear.9 mph93%29.99 "Hg10 mi
7:53 PM54 °FClear.7 mph90%29.99 "Hg10 mi
6:53 PM57 °FSunny.8 mph81%29.98 "Hg10 mi
5:53 PM61 °FSunny.7 mph70%29.96 "Hg10 mi
4:53 PM66 °FSunny.8 mph50%29.95 "Hg10 mi
3:53 PM67 °FSunny.6 mph53%29.96 "Hg10 mi
2:53 PM66 °FSunny.5 mph56%29.96 "Hg10 mi
1:53 PM63 °FSunny.No wind65%29.97 "Hg10 mi
Weather by CustomWeather, © 2014

See weather overviewHow to use our weather pages